Starlink 4190

operational
NORAD ID: 53001 Int'l Des: 2022-076 Owner: SPXS Country: US Constellation: starlink
LEOCIRCULAR

Starlink 4190について

説明を読み込み中...

リアルタイム位置

3D地球を読み込み中...

次回通過

高度履歴

Altitude vs Time

uPlot chart will show altitude changes over time

軌道要素

1 53001U 22076R 25352.59313819 -.00002961 00000-0 -16810-3 0 9991
2 53001 53.2194 98.1754 0001250 91.4446 268.6690 15.08828981190608
Epoch: Dec 18, 2025 • Age: 16 hours

現在のステータス

高度 542.4 km
速度 7.59 km/s
衛星直下点 -8.66°S, 90.67°W
打ち上げ日 Jul 7, 2022
運用期間 3.4 years
タイプ internet

技術仕様

分類 Payload
質量 297.00 kg
乾燥質量 275.00 kg
総質量 297.00 kg
長さ 0.20 m
直径 2.80 m
スパン 9.00 m
形状 Box + pan
製造者 SPXS
バスタイプ Starlink
フェーズステータス In Orbit
所有者/国 SPXS/US

大規模コンステレーション

Loading constellations...